Regional Weather Roundup
Issued by NWS Charleston, SC

Current Version | Previous Version | Graphics & Text | Print | Product List | Glossary On
Versions: 1 2 3 4 5 6 7 8 9 10 11 12 13 14 15 16 17 18 19 20 21 22 23 24 25 26 27 28 29 30 31 32 33 34 35 36 37 38 39 40 41 42 43 44 45 46 47 48 49 50
000 ASUS42 KCHS 201110 RWRCHS REGIONAL WEATHER ROUNDUP NATIONAL WEATHER SERVICE CHARLESTON SC 600 AM EST SAT DEC 20 2014 NOTE: "FAIR" INDICATES FEW OR NO CLOUDS BELOW 12,000 FEET WITH NO SIGNIFICANT WEATHER AND/OR OBSTRUCTIONS TO VISIBILITY. NOT ALL STATIONS ARE QUALITY CONTROLLED BY THE NATIONAL WEATHER SERVICE. USE DATA WITH CAUTION...ESPECIALLY DEWPOINT OBSERVATIONS. SCZ027-030-031-034>040-042>050-201200- ...SOUTHEAST SOUTH CAROLINA... CITY SKY/WX TMP DP RH WIND PRES REMARKS N CHARLESTON LGT RAIN 50 46 86 NE6 30.16R WATERFRONT PRK N/A 54 N/A N/A N9 N/A MOUNT PLEASANT PTSUNNY 50 50 100 N5 30.15R PINOPOLIS N/A 50 46 87 E7 30.08F MONCKS CORNER LGT RAIN 50 46 87 CALM 30.15R SUMMERVILLE NOT AVBL BEAUFORT MCAS LGT RAIN 51 46 83 N3 30.15S BEAUFORT ARPT CLOUDY 50 46 87 N5 30.14S HILTON HEAD IS NOT AVBL WALTERBORO LGT RAIN 50 N/A N/A E3 30.15S ALLENDALE CLOUDY 48 46 93 CALM 30.15R ...SOUTHERN MIDLANDS AND PEE DEE... CITY SKY/WX TMP DP RH WIND PRES REMARKS GEORGETOWN NOT AVBL KINGSTREE NOT AVBL ORANGEBURG LGT RAIN 47 43 86 NE6 30.15F BARNWELL CLOUDY 48 46 93 NE3 30.16R AIKEN LGT RAIN 45 45 100 E3 30.18S MANNING NOT AVBL COLUMBIA LGT RAIN 47 42 83 E3 30.17R SUMTER CLOUDY 43 41 93 NE6 30.16R FLORENCE LGT RAIN 43 39 86 NE7 30.19S MYRTLE BEACH LGT RAIN 48 46 93 NE8 30.20R N MYRTLE BEACH LGT RAIN 46 43 89 NE6 30.19R $$ GAZ063-065-086>088-099>101-113>116-118-119-134>141-150-201200- ...SOUTHEAST GEORGIA... CITY SKY/WX TMP DP RH WIND PRES REMARKS SAVANNAH ARPT CLOUDY 51 49 92 NE5 30.14S HUNTER AAF CLOUDY 52 52 99 NE3 30.12R FORT STEWART CLOUDY 52 50 93 CALM 30.11F STATESBORO LGT RAIN 49 49 100 CALM 30.13F SYLVANIA RAIN 49 49 100 E3 30.15R CLAXTON RAIN 48 48 100 CALM 30.13R ...CSRA...CENTRAL AND FAR SOUTHEAST GEORGIA... CITY SKY/WX TMP DP RH WIND PRES REMARKS THOMSON CLOUDY 49 49 100 CALM 30.19R AUGUSTA-BUSH LGT RAIN 48 46 93 CALM 30.14F AUGUSTA-DANIEL LGT RAIN 50 49 96 E6 30.14S SWAINSBORO CLOUDY 50 50 100 CALM 30.14R VIDALIA LGT RAIN 50 48 93 CALM 30.12F EASTMAN DRIZZLE 48 48 100 CALM 30.15R HAZLEHURST CLOUDY 51 51 99 CALM 30.12R ALMA CLOUDY 50 48 93 CALM 30.11S WAYCROSS CLOUDY 53 52 97 CALM 30.12R JESUP CLOUDY 54 52 94 E3 30.11F FOG BAXLEY DRIZZLE 52 48 87 CALM 30.12R BRUNSWICK CLOUDY 54 50 87 N5 30.13R SAINT SIMONS CLOUDY 53 51 93 N6 30.11S $$ SCZ027-028-034-036>038-045-046-048>050-GAZ119-141-201200- ...LAKE AND SUPPLEMENTAL COASTAL OBSERVATIONS... STATION/POSITION TIME TEMP WIND PRES WAVE SWELL AIR SEA DIR/SP/G HT/PER HT/PER/DIR (UTC) (F) (DEG/KT/KT) (MB) (FT/S) (FT/S/D) UPR LAKE MARION NOT AVBL WINYAH BAY 1000 52 40/ 5 1021.0S LAKE MURRAY 1000 46 30/ 2/ 4 1020.7S ACE BASIN NERRS 1000 49 30/ 2 1020.0S FORT PULASKI 1100 53 57 320/ 2/ 4 1021.0R SAPELO ISLAND 1000 54 10/ 5 1020.0S $$ ANZ835-935-AMZ111-154-330-350-352-354-370-450-454-472-201200- ...C-MAN AND BUOY OBSERVATIONS... STATION/POSITION TIME TEMP WIND PRES WAVE SWELL AIR SEA DIR/SP/G HT/PER HT/PER/DIR (UTC) (F) (DEG/KT/KT) (MB) (FT/S) (FT/S/D) BUOY 41004 1100 64 69 50/ 17/ 19 1019.0R 3/ 4 2/10 BUOY 41008 1100 58 57 20/ 12/ 14 1019.2F 1/10 2/100/10 FOLLY BEACH CMAN 1000 55 40/ 16/ 19 1020.4F CAPERS NEARSHORE 1000 56 60/ 19/ 21 N/A FRIPP NEARSHORE NOT AVBL STATION/POSITION TIME TEMP WIND PRES WAVE SWELL AIR SEA DIR/SP/G HT/PER HT/PER/DIR (UTC) (F) (DEG/KT/KT) (MB) (FT/S) (FT/S/D) 5E ST. MARYS GA 1100 61 N/A 2/10 FRYING PAN BUOY 1100 56 69 60/ 14/ 17 1022.2F 2/ 4 2/110/10 BUOY 41025 1100 46 1023.6R 3/ 6 CAPE LOOKOUT NC 1000 45 20/ 9/ 10 1022.9F BUOY 41002 1012 65 72 60/ 8/ 12 1021.2R 3/10 2/ 90/10 BUOY 41010 1100 71 76 180/ 6/ 8 1018.8R 2/11 2/ 90/11 ST AUGUSTINE FL 1100 63 30/ 8/ 8 1019.5R $$

USA.gov is the U.S. government's official web portal to all federal, state and local government web resources and services.